Volver al catálogo

GONETS M 09

M19

ActivoComunicacionesPO
NORAD 40062·PAYLOAD·🇷🇺 Russia

Lanzado Jul 3, 2014 desde Plesetsk Cosmodrome

Loading…

Próximos Pases (próximas 24 horas)

TLE

ActualizadoSource: Space-Track

Época: Sep 14, 2026, 14:18 UTC

1 40062U 14036B   26257.59616450 -.00000049  00000-0 -42210-3 0  9991
2 40062  82.5044 252.1129 0022396 323.5710  36.3845 12.42953125553569

Sigue GONETS M 09 en tiempo real con AllMySat

Download on the App Store